International Skating Union - Official Site

ISU World Cup Heerenveen
December 12-14, 2014

Draw | Lap Times | Index | World Cup

Referee: Daniel  CABELDUC  (SWE)
Starter: Janny  SMEGEN  (NED)
StartTime: EndTime: Air Temp: Ice Temp: Humidity:
13:35 14:14 11℃ -7.2℃ 39%
Result 3000m Ladies Division B
Rankings as of Dec 13 2014 5:05PM
Rank: No.: Name: Nation: Time: Behind: Points:
1 82 Ida  Njåtun NOR NOR 4:11.24200m - 20.00 - (20.0)
600m - 52.12 - (32.1)
1000m - 1:24.38 - (32.2)
1400m - 1:56.85 - (32.4)
1800m - 2:29.80 - (32.9)
2200m - 3:02.98 - (33.1)
2600m - 3:36.73 - (33.7)
3000m - 4:11.24 - (34.5)
32
2 87 Luiza  Zlotkowska POL POL 4:11.42200m - 20.41 - (20.4)
600m - 52.50 - (32.0)
1000m - 1:24.73 - (32.2)
1400m - 1:57.06 - (32.3)
1800m - 2:29.64 - (32.5)
2200m - 3:03.04 - (33.4)
2600m - 3:36.83 - (33.7)
3000m - 4:11.42 - (34.5)
0.18 27
3 97 Natalya  Voronina RUS RUS 4:12.46200m - 20.53 - (20.5)
600m - 52.68 - (32.1)
1000m - 1:25.33 - (32.6)
1400m - 1:57.69 - (32.3)
1800m - 2:31.11 - (33.4)
2200m - 3:04.57 - (33.4)
2600m - 3:38.62 - (34.0)
3000m - 4:12.46 - (33.8)
1.22 23
4 41 Ayaka  Kikuchi JPN JPN 4:12.53200m - 20.56 - (20.5)
600m - 52.17 - (31.6)
1000m - 1:24.42 - (32.2)
1400m - 1:57.30 - (32.8)
1800m - 2:30.54 - (33.2)
2200m - 3:04.19 - (33.6)
2600m - 3:38.12 - (33.9)
3000m - 4:12.53 - (34.4)
1.29 19
5 34 Isabell  Ost GER GER 4:12.76200m - 20.45 - (20.4)
600m - 52.73 - (32.2)
1000m - 1:25.15 - (32.4)
1400m - 1:57.30 - (32.1)
1800m - 2:29.89 - (32.5)
2200m - 3:03.29 - (33.4)
2600m - 3:37.55 - (34.2)
3000m - 4:12.76 - (35.2)
1.52 15
6 21 Xin  Zhao CHN CHN 4:12.89200m - 20.40 - (20.4)
600m - 51.87 - (31.4)
1000m - 1:23.57 - (31.7)
1400m - 1:56.47 - (32.9)
1800m - 2:29.29 - (32.8)
2200m - 3:03.12 - (33.8)
2600m - 3:37.68 - (34.5)
3000m - 4:12.89 - (35.2)
1.65 11
7 16 Jing  Liu CHN CHN 4:13.61200m - 20.49 - (20.4)
600m - 52.44 - (31.9)
1000m - 1:25.23 - (32.7)
1400m - 1:57.93 - (32.7)
1800m - 2:31.10 - (33.1)
2200m - 3:04.80 - (33.7)
2600m - 3:39.08 - (34.2)
3000m - 4:13.61 - (34.5)
2.37 9
8 6 Kali  Christ CAN CAN 4:13.77200m - 20.75 - (20.7)
600m - 53.56 - (32.8)
1000m - 1:26.10 - (32.5)
1400m - 1:59.14 - (33.0)
1800m - 2:32.35 - (33.2)
2200m - 3:05.71 - (33.3)
2600m - 3:39.25 - (33.5)
3000m - 4:13.77 - (01.0)
2.53 7
9 2 Jelena  Peeters BEL BEL 4:14.13200m - 20.45 - (20.4)
600m - 52.69 - (32.2)
1000m - 1:25.89 - (33.2)
1400m - 1:59.02 - (33.1)
1800m - 2:32.06 - (33.0)
2200m - 3:05.51 - (33.4)
2600m - 3:39.18 - (33.6)
3000m - 4:14.13 - (34.9)
2.89 6
10 46 Maki  Tabata JPN JPN 4:15.24200m - 20.34 - (20.3)
600m - 51.69 - (31.3)
1000m - 1:23.88 - (32.1)
1400m - 1:57.02 - (33.1)
1800m - 2:31.00 - (33.9)
2200m - 3:05.47 - (34.4)
2600m - 3:40.15 - (34.6)
3000m - 4:15.24 - (35.0)
4.00 5
11 49 Risa  Takayama JPN JPN 4:15.91200m - 20.78 - (20.7)
600m - 51.91 - (31.1)
1000m - 1:24.41 - (32.5)
1400m - 1:57.64 - (33.2)
1800m - 2:31.74 - (34.1)
2200m - 3:06.23 - (34.4)
2600m - 3:40.88 - (34.6)
3000m - 4:15.91 - (35.0)
4.67 4
12 38 Francesca  Lollobrigida ITA ITA 4:16.36200m - 20.33 - (20.3)
600m - 51.55 - (31.2)
1000m - 1:23.90 - (32.3)
1400m - 1:56.56 - (32.6)
1800m - 2:30.12 - (33.5)
2200m - 3:04.32 - (34.2)
2600m - 3:40.03 - (35.7)
3000m - 4:16.36 - (36.3)
5.12 3
13 28 Saskia  Alusalu EST EST 4:18.92200m - 20.90 - (20.9)
600m - 52.95 - (32.0)
1000m - 1:25.48 - (32.5)
1400m - 1:58.87 - (33.3)
1800m - 2:32.81 - (33.9)
2200m - 3:07.51 - (34.7)
2600m - 3:42.81 - (35.3)
3000m - 4:18.92 - (36.1)
7.68 2
14 84 Aleksandra  Goss POL POL 4:19.05200m - 20.68 - (20.6)
600m - 52.48 - (31.8)
1000m - 1:25.04 - (32.5)
1400m - 1:58.07 - (33.0)
1800m - 2:32.24 - (34.1)
2200m - 3:07.21 - (34.9)
2600m - 3:43.00 - (35.7)
3000m - 4:19.05 - (36.0)
7.81 1
15 83 Angelika  Fudalej POL POL 4:19.39200m - 20.29 - (20.2)
600m - 52.14 - (31.8)
1000m - 1:25.38 - (33.2)
1400m - 1:59.62 - (34.2)
1800m - 2:33.99 - (34.3)
2200m - 3:08.87 - (34.8)
2600m - 3:44.17 - (35.3)
3000m - 4:19.39 - (35.2)
8.15 0
16 59 Cho-Weon  Park KOR KOR 4:20.02200m - 20.69 - (20.6)
600m - 52.43 - (31.7)
1000m - 1:24.96 - (32.5)
1400m - 1:58.27 - (33.3)
1800m - 2:32.10 - (33.8)
2200m - 3:06.74 - (34.6)
2600m - 3:42.85 - (36.1)
3000m - 4:20.02 - (37.1)
8.78 0
17 85 Urszula  Wlodarczyk POL POL 4:20.57200m - 20.63 - (20.6)
600m - 52.64 - (32.0)
1000m - 1:25.83 - (33.1)
1400m - 2:00.09 - (34.2)
1800m - 2:34.94 - (34.8)
2200m - 3:09.81 - (34.8)
2600m - 3:45.22 - (35.4)
3000m - 4:20.57 - (35.3)
9.33 0
18 54 Ye Jin  Jun KOR KOR 4:21.54200m - 20.92 - (20.9)
600m - 53.15 - (32.2)
1000m - 1:26.48 - (33.3)
1400m - 2:00.50 - (34.0)
1800m - 2:35.17 - (34.6)
2200m - 3:10.51 - (35.3)
2600m - 3:45.99 - (35.4)
3000m - 4:21.54 - (35.5)
10.30 0
19 103 Carlijn  Schoutens USA USA 4:21.65200m - 21.33 - (21.3)
600m - 53.91 - (32.5)
1000m - 1:27.22 - (33.3)
1400m - 2:01.58 - (34.3)
1800m - 2:36.21 - (34.6)
2200m - 3:11.05 - (34.8)
2600m - 3:46.03 - (34.9)
3000m - 4:21.65 - (35.6)
10.41 0
20 26 Nikola  Zdráhalova CZE CZE 4:21.68200m - 20.45 - (20.4)
600m - 53.20 - (32.7)
1000m - 1:26.99 - (33.7)
1400m - 2:01.54 - (34.5)
1800m - 2:36.51 - (34.9)
2200m - 3:11.44 - (34.9)
2600m - 3:46.78 - (35.3)
3000m - 4:21.68 - (34.9)
10.44 0
21 30 Roxanne  Dufter GER GER 4:21.94200m - 20.99 - (20.9)
600m - 53.31 - (32.3)
1000m - 1:26.40 - (33.0)
1400m - 1:59.50 - (33.1)
1800m - 2:33.50 - (34.0)
2200m - 3:08.54 - (35.0)
2600m - 3:44.96 - (36.4)
3000m - 4:21.94 - (36.9)
10.70 0
22 10 Lauren  McGuire CAN CAN 4:22.58200m - 21.11 - (21.1)
600m - 53.34 - (32.2)
1000m - 1:26.35 - (33.0)
1400m - 1:59.84 - (33.4)
1800m - 2:34.86 - (35.0)
2200m - 3:10.50 - (35.6)
2600m - 3:46.40 - (35.9)
3000m - 4:22.58 - (36.1)
11.34 0
23 98 Eva  Lagrange SWE SWE 4:23.77200m - 20.76 - (20.7)
600m - 54.90 - (34.1)
1000m - 1:28.80 - (33.9)
1400m - 2:03.52 - (34.7)
1800m - 2:37.63 - (34.1)
2200m - 3:12.28 - (34.6)
2600m - 3:48.07 - (35.7)
3000m - 4:23.77 - (35.7)
12.53 0
24 27 Elena Moeller  Rigas DEN DEN 4:26.77200m - 21.54 - (21.5)
600m - 54.70 - (33.1)
1000m - 1:28.77 - (34.0)
1400m - 2:03.35 - (34.5)
1800m - 2:38.80 - (35.4)
2200m - 3:14.14 - (35.3)
2600m - 3:50.17 - (36.0)
3000m - 4:26.77 - (36.6)
15.53 0
25 102 Jaclyn  Rowe USA USA 4:35.77200m - 21.05 - (21.0)
600m - 54.77 - (33.7)
1000m - 1:30.04 - (35.2)
1400m - 2:06.06 - (36.0)
1800m - 2:42.81 - (36.7)
2200m - 3:20.00 - (37.1)
2600m - 3:57.94 - (37.9)
3000m - 4:35.77 - (37.8)
24.53 0